EST,Max TemperatureF,Mean TemperatureF,Min TemperatureF,Max Dew PointF,MeanDew PointF,Min DewpointF,Max Humidity, Mean Humidity, Min Humidity, Max Sea Level PressureIn, Mean Sea Level PressureIn, Min Sea Level PressureIn, Max VisibilityMiles, Mean VisibilityMiles, Min VisibilityMiles, Max Wind SpeedMPH, Mean Wind SpeedMPH, Max Gust SpeedMPH,PrecipitationIn, CloudCover, Events, WindDirDegrees
2013-1-1,52,47,41,39,32,14,76,52,28,30.09,30.00,29.91,10,10,10,16,6,22,0.02,7,Rain,274
2013-1-2,42,38,34,36,25,14,85,63,40,30.22,30.10,29.98,10,10,10,18,7,22,T,6,,321
2013-1-3,45,39,33,23,18,11,54,41,27,30.26,30.22,30.16,10,10,10,18,4,24,0.00,3,,308
2013-1-4,45,37,29,19,17,16,58,46,33,30.33,30.27,30.21,10,10,10,28,12,36,0.00,0,,290
2013-1-5,50,40,30,31,20,16,63,45,26,30.42,30.31,30.23,10,10,10,22,6,29,T,2,Rain,279
2013-1-6,50,43,36,30,28,25,70,56,42,30.20,30.14,30.07,10,10,10,22,8,29,T,5,Rain,270
2013-1-7,48,38,28,25,22,20,69,52,34,30.47,30.38,30.22,10,10,10,25,5,30,0.00,2,,358
2013-1-8,54,39,23,31,26,20,81,58,35,30.48,30.42,30.37,10,10,10,8,2,14,0.00,0,,132
2013-1-9,61,46,30,47,37,26,85,68,51,30.44,30.40,30.37,10,10,9,22,4,33,0.00,3,,262
2013-1-10,59,49,39,32,28,24,65,47,28,30.58,30.50,30.45,10,10,10,13,4,14,0.00,1,,64
2013-1-11,49,45,40,40,36,30,93,72,50,30.43,30.29,30.16,10,5,0,10,3,13,0.05,8,Fog-Rain,145
2013-1-12,73,57,41,57,48,39,96,77,57,30.18,30.13,30.09,10,6,0,10,3,14,0.00,4,Fog,111
2013-1-13,71,64,56,58,56,54,100,79,57,30.12,30.06,30.00,10,6,0,14,4,17,0.00,4,Fog,153
2013-1-14,66,57,48,58,52,45,96,80,63,30.25,30.14,30.03,10,8,2,15,4,18,0.60,8,Rain,349
2013-1-15,48,43,38,45,40,37,100,93,86,30.28,30.21,30.12,10,6,2,12,5,15,1.88,8,Rain,139
2013-1-16,49,44,38,45,39,36,100,91,82,30.12,30.03,29.94,10,8,2,12,2,14,0.42,8,Rain,135
2013-1-17,48,41,33,43,33,26,96,81,65,30.19,30.08,30.02,10,5,0,13,6,16,1.38,7,Fog-Rain-Snow,351
2013-1-18,39,34,28,25,21,15,78,58,37,30.53,30.42,30.22,10,10,10,26,7,32,0.00,0,,304
2013-1-19,50,37,24,28,24,20,92,63,34,30.47,30.33,30.11,10,10,7,15,5,21,0.00,0,,261
2013-1-20,56,47,38,30,24,16,59,44,28,30.09,30.05,29.99,10,10,10,24,12,36,0.00,0,,272
2013-1-21,51,41,30,21,15,2,51,37,23,30.10,30.00,29.87,10,10,10,29,12,38,0.00,0,,268
2013-1-22,30,25,19,5,-4,-6,38,31,23,30.30,30.20,30.01,10,10,10,28,12,37,0.00,0,,297
2013-1-23,34,26,17,15,3,-6,49,35,21,30.35,30.24,30.04,10,10,10,18,8,26,0.00,5,,284
2013-1-24,37,28,19,17,5,-3,53,40,27,30.55,30.30,29.99,10,10,10,33,13,46,0.00,4,,337
2013-1-25,24,21,18,18,13,2,84,63,41,30.52,30.27,30.08,10,5,1,17,4,20,0.11,6,Snow,150
2013-1-26,41,32,23,24,20,17,81,64,46,30.45,30.23,30.07,10,10,7,22,10,30,0.00,3,,307
2013-1-27,36,28,20,24,19,15,81,69,56,30.61,30.52,30.46,10,10,8,12,4,15,0.00,3,,115
2013-1-28,57,45,32,44,34,24,92,72,51,30.46,30.32,30.17,10,6,2,15,4,20,0.10,5,Rain,147
2013-1-29,74,64,54,50,46,43,72,57,41,30.18,30.10,29.99,10,10,10,20,9,24,0.00,1,,229
2013-1-30,69,61,52,60,56,46,100,83,66,29.96,29.63,29.37,10,6,1,33,10,46,2.65,8,Rain,180
2013-1-31,52,43,33,42,21,14,60,49,37,29.95,29.76,29.41,10,10,10,32,16,45,T,5,Rain,268